Find STARLINK-37386

NORAD ID: 70563 Constellation: starlink operational
LEOCIRCULARRETROGRADE

Live Position

Loading 3D Globe...

About STARLINK-37386

Description loading...

Upcoming Passes

Passes for default location (London). Set your location on the main map for personalized predictions.

Altitude History

Loading altitude history...

Two-Line Element Set

1 70563C 26097D 26121.90465278 -.00872680 00000+0 -12954-2 0 1210
2 70563 97.2859 316.5676 0007449 258.4058 128.1897 16.05288838 19
Epoch: May 1, 2026 • Age: 28 hours